Résultats de la compétition "Demi-finale NE" du 13-05-2007 organisée par le club 2105
     
  Télécharger le fichier CSV.  
     
     

 Circuit "Circuit G"

Licence Nom Prénom Temps CN
précédent
Score sur
la course
Différence
1380DIEUDONNEMadeleine1:03:52N/A3654N/A
6886FRANTZFrancoise1:07:35N/A3453N/A
3302JEANPIERREM-Therese1:09:49N/A3343N/A
116PIGERAlbert1:12:01N/A3241N/A
836PARETOdette1:12:15N/A3230N/A
352MULLERRaymond1:15:36N/A3087N/A
709VIEILLECecile1:15:42N/A3083N/A
2557VOGTChristiane1:16:30N/A3051N/A
1443BEGUINOTJacques1:16:41N/A3044N/A
2680KIEFFERMireille1:17:12N/A3023N/A
701ABISSEGisele1:20:48N/A2889N/A
2446RIFFARDM-Lucie1:26:56N/A2685N/A
725LAURENTTherese1:28:35N/A2635N/A
3185PASCAUDClaire1:36:38N/A2415N/A
295PEETERSSimone1:38:58N/A2358N/A
570GUICHARDONGeorges1:39:30N/A2346N/A
17394ASMUSSENPascal1:45:30N/A2212N/A
2406LIONNETM-Jeanne1:46:15N/A2197N/A
2674GUETINMichel1:46:25N/A2193N/A
6980BIGOTYvette1:46:27N/A2192N/A
3179RICHARDClaudette1:50:53N/A2105N/A
117PIGERGhislaine1:54:39N/A2036N/A
15274VERDINChristine1:58:17N/A1973N/A
3406FLAMBEAUClaudine2:06:16N/A1848N/A
2413ROLLETM-Madeleine2:06:31N/A1845N/A
15894LUDEWIG-JAMESCarol2:08:23N/A1818N/A
11368LAUNEYNoella2:10:00N/A1795N/A
1444BEGUINOTM-Louise2:10:21N/A1790N/A
2487JOLYFrancoise2:19:29N/A1673N/A
14021QUEYROIYvette2:25:20N/A1606N/A
8954BASTIEN-FATHNicole2:45:38N/A1409N/A
17845GAUTTIEREmilieN/AN/A0N/A
1676LASSALLEFrancineN/AN/A0N/A
7910MOUGELDanielleN/AN/A0N/A
1275ANTOINEJacquelineN/AN/A0N/A

  Indice de confiance du circuit (moyenne des différences entre CN et score sur la course des 3 à 10 premiers) : 153






 Retour